{"data":{"norad_id":60370,"epoch":"2026-09-21T20:40:15.504384Z","epoch_age_seconds":67941,"freshness":"FRESH","line1":"1 60370U 24138R   26264.86129056 -.00001492  00000+0 -33024-4 0  9994","line2":"2 60370  53.1604 117.6067 0001102  89.3461 270.7668 15.34394994120673","mean_motion":15.34394994,"eccentricity":0.0001102,"inclination_deg":53.1604,"raan_deg":117.6067,"arg_perigee_deg":89.3461,"mean_anomaly_deg":270.7668,"bstar":-3.3024e-5,"rev_number":12067,"period_min":93.848064261868,"perigee_km":461.9642569004,"apogee_km":463.47198136865,"semimajor_km":6840.8551191345,"source":"CELESTRAK","updated_at":"2026-09-22T09:00:49.226679Z"}}